OBJECT AB, 57191

Orbit data source: Space-Track

You're viewing an Uncataloged Satellite

Recently launched and/or uncataloged satellites may have evolving metadata. Metadata may include but not limited to: Owner, Maufacturer, Bus, Motor, and Mission.

OBJECT AB, 57191 is a satellite in SSO that was launched on Tue, 27 Jun 2023 UTC via a SOYUZ-2-1B launch vehicle from the Vostochny Cosmodrome (VOSTO). Unknown objects in Earth's orbit typically refer to objects detected orbiting the Earth but have not yet been identified or cataloged. These objects could be anything from previously untracked satellites, spent rocket stages, debris from satellite collisions, or even natural meteoroids temporarily captured by Earth's gravity.

Loading next visibility...
Identifier
57191, 2023-091AB
Orbit
SSO
Country
Flag of TBDTBD
Related business
Manufacturer
STTs
Mission
Operational Amateur Technology
Bus & Motor
CUBESAT 3U, Unknown motor
Mass
5.07 kg wet, 5.07 kg dry
Launch date (UTC)
2023-06-27 (3 years ago)
Launch vehicle
SOYUZ-2-1B
Launch site
Vostochny Cosmodrome (VOSTO)
Object type
Unknown
Shape & HBR
Box, 0.1 m
Radar Cross Section
0.035 m², Medium (>0.1 m² and < 1m²)

Expand to show TLE details & history
Last TLE update: 7 hours ago

TLE from 7 hours ago
0 OBJECT AB
1 57191U 23091AB  26162.80671722  .00004325  00000-0  20891-3 0  9995
2 57191  97.5055 220.6288 0016546 143.9659 216.2695 15.19061038163132
Epoch: 2026-06-11T19:21Z
TLE epoch observation values (Epoch: 2026-06-11T19:21:40.367Z)
Latitude
0.00004°
Longitude
30.06538°
Altitude
520.959 km
Speed
7.598 km/s
True Right ascension
14h 42m 30s
True Declination
0° 00' 00"
Sunlit
Object was in full shadow at epoch
Visualization orbit readout
Latitude
Unknown
Longitude
Unknown
Altitude
Unknown
Speed
Unknown
Apparent Right ascension
Unknown
Apparent Declination
Unknown
Sunlit
N/A
Visualization observer readout
Local Sidereal Time
12:53:38
Azimuth
Unknown
Elevation
Unknown
Doppler factor
Unknown
Orbital elements
Apogee altitude
517.038 km
Perigee altitude
494.259 km
Semi-major axis
6,883.785 km
Eccentricity
0.00165
Inclination
97.5055°
RAAN
220.6288°
Arg. of periapsis
143.9659°
True anomaly
216.15752°
Mean anomaly
216.2695°
Eccentric anomaly
216.21349°
Mean motion
3.80016 °/min
Orbital period
94.73 mins
BSTAR
0.00020891
Loading maneuver chart data...
Computing Atmospheric mass density...
Loading historical data...
Loading historical data...
Loading historical data...
Loading historical data...
Loading historical data...
Loading historical data...
Loading historical data...

Documentation

Showing up to 5 results
|